Wind_Speed
87 89 91 93 94 95 96 96 97 98 99 100 102 103 105 106 106 106 105 105 105 105 104 104 104 104 103 103 102 102 101 100 100 99 98 97 97 97 97 97 97 97 97 98 98 99 99 100 100 101 102 102 103 103 104 104 105 105 106 107 107 107 106 105 103 102 102 102 102 102 102 103 104 106 107 107 106 105 104 104 104 105 106 108 109
86 87 89 91 92 94 95 95 96 97 97 98 100 101 103 104 105 106 106 107 107 107 106 106 106 106 106 105 106 106 105 105 104 103 102 102 101 101 101 101 101 101 101 102 102 103 103 103 103 104 105 105 105 106 106 107 107 108 108 108 108 107 105 104 103 102 102 102 102 102 102 103 104 106 107 106 105 104 103 104 104 106 108 109 110
84 85 87 88 90 91 92 94 95 96 97 98 99 100 101 103 104 105 106 107 107 108 108 108 108 108 108 108 108 108 108 108 107 106 106 105 105 105 105 104 104 104 105 105 105 106 106 106 106 107 108 108 108 108 108 108 108 108 108 108 107 106 104 103 103 102 102 101 101 101 101 102 104 106 106 105 104 103 103 104 106 107 109 111 113
82 83 84 86 87 89 90 91 93 94 95 96 97 99 100 101 103 104 105 106 106 107 108 108 109 109 109 110 110 110 110 110 110 109 109 109 109 108 108 108 107 107 107 108 109 109 109 109 109 109 109 109 108 108 108 108 108 108 107 107 105 104 102 101 101 100 100 100 100 100 100 101 104 105 105 104 103 103 104 106 107 109 111 114 116
80 80 82 83 84 86 88 89 91 92 93 94 95 96 98 99 101 102 103 104 105 106 107 108 108 109 109 110 110 111 111 111 111 111 111 111 111 111 111 111 110 110 110 110 110 111 110 109 110 110 109 108 107 107 107 107 107 106 105 104 102 101 100 99 98 98 99 98 98 98 99 101 104 105 104 104 104 105 106 108 110 112 115 117 120
78 79 80 81 82 83 85 86 88 89 91 92 93 94 95 97 98 99 101 102 103 104 105 106 107 107 108 109 110 110 111 111 111 111 112 112 112 111 111 111 110 110 110 110 109 109 109 108 108 107 106 105 104 105 105 105 104 103 102 100 100 99 98 98 98 98 98 98 98 98 100 104 105 105 104 105 105 106 109 111 113 116 119 122 124
76 78 79 80 80 81 83 84 85 86 88 89 91 92 93 94 95 96 97 98 99 100 101 102 103 104 105 106 107 108 109 109 109 110 110 110 110 109 109 109 108 108 107 107 106 105 105 104 103 103 102 101 102 102 102 102 101 100 99 99 98 98 98 98 98 98 99 99 99 101 104 106 106 105 105 106 108 110 112 114 117 121 123 124 124
72 74 76 78 80 81 81 82 83 84 85 87 88 89 91 92 93 94 95 96 96 97 97 98 99 99 100 101 102 103 103 104 105 105 106 105 105 105 105 105 104 103 103 102 102 101 101 100 100 99 99 99 99 100 100 99 99 99 99 99 99 99 99 99 100 100 100 101 102 104 106 106 106 107 108 110 112 114 117 118 120 121 122 122 121
69 71 72 74 77 79 80 81 82 83 84 85 86 87 88 89 91 92 93 94 94 95 96 96 97 98 98 98 98 99 99 100 101 101 101 101 101 101 101 101 100 100 99 99 99 99 99 98 98 98 98 98 98 98 99 99 100 100 100 100 100 100 101 101 102 102 103 104 105 106 107 108 109 111 113 115 117 118 119 119 118 118 117 117 119
66 69 71 73 74 76 78 80 81 82 83 84 85 86 87 88 89 90 91 92 93 94 95 96 97 97 98 98 98 98 98 99 99 99 98 98 99 99 98 98 98 97 97 97 97 97 97 96 97 97 97 97 98 98 98 99 100 100 100 101 102 102 103 104 105 106 107 108 109 110 111 112 115 116 117 118 118 118 117 116 114 114 114 114 117
62 66 70 72 74 76 78 79 81 82 83 84 85 86 87 88 88 89 90 92 93 93 94 95 96 97 97 98 98 98 99 99 99 99 99 99 99 99 99 99 99 98 98 98 98 98 98 98 99 99 99 100 100 100 101 102 103 103 104 105 106 107 108 109 109 110 111 111 112 113 114 115 116 117 116 116 115 114 113 112 112 112 113 115 117
58 62 66 69 72 74 76 79 80 82 83 84 86 87 88 88 89 90 90 91 92 93 94 95 96 96 97 98 98 99 100 100 100 100 100 100 100 100 100 101 101 101 102 102 102 102 103 103 103 104 104 105 105 106 106 107 108 108 109 109 110 110 110 110 110 111 111 112 113 113 113 113 113 113 113 112 111 110 110 111 111 112 114 116 118
54 58 62 65 68 70 73 76 78 80 81 83 84 85 87 88 89 90 91 92 93 94 95 96 96 97 97 98 98 99 100 101 102 102 102 102 102 102 103 103 104 105 105 105 105 106 106 106 107 107 108 108 108 109 109 110 110 110 110 110 111 111 111 111 111 111 112 112 111 110 110 110 109 109 109 108 108 108 109 111 112 114 116 118 120
54 57 60 62 65 67 69 71 73 75 77 78 80 81 82 84 86 87 89 90 92 93 94 96 97 98 98 99 99 100 101 101 101 101 102 102 102 103 104 105 106 107 108 108 108 108 108 108 108 109 109 110 110 110 110 111 111 111 111 111 111 111 110 110 109 109 109 108 106 106 106 106 106 107 107 107 107 109 111 113 115 116 117 119 120
53 55 57 59 61 63 65 67 68 70 71 73 74 75 77 79 80 82 83 85 87 88 90 91 93 95 96 97 99 100 101 102 102 102 103 103 103 104 105 107 108 109 109 109 109 109 109 109 110 110 111 111 111 111 111 112 111 111 111 110 109 108 107 106 106 105 105 104 104 104 105 105 106 106 107 107 109 111 113 115 116 116 116 117 118
49 51 53 55 56 58 59 61 62 64 65 67 68 70 72 73 75 77 78 80 82 83 84 86 87 89 90 92 94 96 97 98 99 100 102 103 103 103 105 107 109 109 110 110 110 110 110 110 110 111 111 111 111 111 110 110 110 109 108 107 106 105 104 103 103 103 103 102 103 104 105 106 106 107 108 109 110 112 113 114 114 114 113 114 114
46 48 49 50 52 53 54 56 58 59 61 63 64 66 68 69 71 72 74 76 77 78 80 81 83 84 85 87 88 90 91 92 93 94 95 97 97 98 100 102 104 106 106 106 105 106 106 107 107 107 107 107 107 107 106 106 106 105 105 104 103 103 102 103 103 102 102 102 102 103 104 105 106 107 107 108 109 110 111 111 111 111 110 108 105
45 46 47 48 49 50 51 53 55 56 58 60 61 63 64 65 67 68 69 71 73 74 75 77 78 80 81 82 83 85 86 87 87 88 89 89 90 91 93 95 98 99 100 99 99 99 100 102 102 103 103 103 104 103 103 103 103 103 103 103 103 103 103 103 103 102 102 102 102 103 104 105 106 106 107 107 108 109 109 108 107 105 102 99 96
44 45 47 48 48 49 50 51 53 54 55 57 58 60 61 62 63 65 66 68 69 70 72 73 74 76 77 78 79 80 82 82 83 83 84 84 85 86 87 90 92 94 94 94 94 95 96 97 98 99 99 100 100 101 101 102 102 102 102 103 103 103 103 103 103 102 102 103 103 103 104 105 106 106 106 106 106 105 103 100 98 95 93 91 90
43 44 45 46 47 48 49 50 51 52 53 55 56 57 59 60 61 62 63 64 65 67 68 69 70 71 72 73 75 76 77 78 78 79 80 80 81 82 83 86 88 89 89 89 90 91 92 93 94 95 95 95 96 97 97 98 99 100 101 102 102 102 102 102 102 102 103 103 103 103 104 104 104 103 102 101 99 96 93 90 88 87 87 86 86
42 43 44 45 46 47 47 48 49 51 52 53 54 56 57 57 59 60 61 62 63 63 64 65 66 68 69 70 71 72 73 73 74 75 75 76 77 78 79 81 82 83 83 84 86 87 88 88 89 90 90 90 91 91 92 93 94 94 96 97 97 97 97 97 98 99 99 99 99 99 99 98 98 96 94 92 89 86 84 82 83 83 83 83 83
42 43 44 45 45 46 46 47 48 49 50 51 52 54 56 56 57 58 59 60 60 61 62 63 64 65 66 67 68 69 70 71 71 72 73 74 74 75 75 76 77 78 79 80 81 82 83 83 84 85 85 85 86 86 87 87 87 88 88 89 88 88 89 90 90 90 91 91 91 91 91 90 89 87 85 83 80 78 78 79 80 80 80 81 82
42 43 44 44 45 45 46 46 47 47 48 49 51 52 54 55 55 57 57 58 59 60 60 61 62 63 64 65 66 67 67 68 69 70 71 72 72 73 73 73 74 75 76 77 78 79 79 80 81 81 81 81 82 82 82 82 82 82 82 81 81 80 80 81 81 81 82 83 83 83 83 81 79 78 76 75 74 74 76 77 78 78 79 80 81
41 41 42 43 43 43 44 44 44 45 46 47 48 50 52 52 53 55 55 56 57 58 58 59 59 61 62 63 64 64 65 66 67 68 69 70 70 70 70 70 71 72 73 74 75 75 75 76 77 78 78 78 79 79 79 79 78 78 76 75 74 73 72 72 72 73 74 75 75 75 73 71 71 71 71 72 72 74 75 76 76 76 77 80 82
41 41 41 41 41 41 42 42 43 43 44 45 47 48 49 50 51 52 53 54 55 56 57 57 58 59 60 61 62 63 64 64 65 66 66 66 66 66 66 67 68 68 68 69 70 70 70 71 72 72 72 72 73 73 73 73 73 73 71 69 68 67 66 66 67 67 68 68 68 67 66 66 68 69 70 70 71 72 73 74 75 76 77 80 81
41 41 41 40 40 40 41 42 42 42 43 44 45 46 47 48 50 51 52 53 54 55 56 57 58 59 60 61 61 61 62 62 62 62 62 61 61 62 62 63 63 63 63 64 64 64 64 64 65 65 65 65 65 65 66 66 66 66 64 63 63 63 62 62 62 62 63 63 63 63 64 65 66 67 67 69 69 70 72 73 75 76 78 79 81
41 41 40 40 40 40 40 42 43 43 43 43 45 46 46 47 48 50 51 52 53 55 56 57 58 59 59 58 58 58 59 59 59 58 58 58 59 60 60 60 60 59 59 60 60 59 59 60 60 60 59 58 58 58 59 59 59 58 58 58 59 59 58 58 58 59 60 61 61 62 63 63 63 64 65 66 67 69 71 73 75 76 78 80 82
40 39 38 38 39 39 40 41 42 43 43 44 44 45 46 47 48 49 50 52 53 54 56 56 57 57 57 56 56 56 57 58 58 57 56 57 58 58 59 59 59 58 58 58 57 56 56 57 56 55 54 53 53 53 53 53 52 52 53 53 53 53 53 54 55 56 57 58 59 60 60 60 61 62 63 64 65 68 70 72 74 76 79 81 82
37 36 35 36 37 38 39 40 41 41 42 42 43 44 45 46 47 49 50 51 52 53 54 55 56 56 56 56 56 56 57 58 59 58 57 57 58 57 57 57 56 55 56 56 54 53 54 53 52 51 50 49 49 49 48 48 47 47 48 48 49 49 49 50 52 54 55 56 57 57 58 58 60 61 62 63 65 68 70 72 74 77 79 80 80
35 34 33 34 36 37 38 38 39 39 40 42 43 44 44 45 46 47 49 50 50 51 52 53 54 54 54 55 55 55 56 57 58 57 56 56 55 54 53 52 52 52 53 52 51 50 50 49 48 47 45 45 45 44 43 43 43 43 43 44 46 47 47 49 51 52 53 54 54 55 56 57 59 61 62 64 66 68 70 72 75 78 79 78 77
33 33 34 35 35 36 36 37 38 39 40 41 42 43 43 44 44 45 47 48 48 49 49 50 50 50 50 50 50 51 52 52 52 52 51 50 49 47 46 47 47 49 49 47 46 46 46 44 43 41 41 40 39 39 39 39 39 39 40 42 44 45 46 47 49 49 50 52 53 54 55 56 58 61 62 64 66 69 71 74 76 77 76 75 76
32 33 34 35 35 35 35 36 37 39 40 41 42 42 43 44 44 44 44 44 44 45 45 45 45 44 44 44 44 45 45 45 45 45 44 43 42 41 41 42 44 44 43 42 42 42 41 39 38 37 36 35 34 35 35 35 36 36 37 39 40 41 43 45 46 47 49 50 51 53 54 56 58 60 62 65 68 70 73 75 75 74 73 74 77
31 33 34 34 34 33 34 35 36 38 39 41 42 42 43 43 43 42 41 40 40 40 39 39 38 38 38 38 39 39 39 38 38 38 37 37 36 37 38 38 38 37 37 38 38 37 36 34 33 32 31 31 31 31 32 32 33 34 34 36 38 39 41 43 44 45 47 48 50 52 54 56 59 61 64 67 70 72 74 74 72 72 72 75 79
31 32 33 33 33 32 32 33 35 36 38 40 41 41 41 41 41 40 38 37 38 38 37 36 35 34 33 34 34 33 33 32 32 33 33 32 32 33 33 32 32 33 33 34 33 32 31 30 28 27 27 27 28 28 29 29 30 32 33 35 37 38 39 40 41 43 45 47 49 52 54 57 60 63 66 69 71 72 72 70 70 71 73 77 81
30 31 31 31 31 30 31 31 33 35 36 38 40 40 40 39 38 37 35 35 35 34 33 32 31 30 29 28 28 28 27 27 28 28 28 27 26 26 26 27 28 28 29 28 28 27 26 25 24 23 23 24 25 26 27 28 29 31 32 33 33 35 36 38 40 42 45 47 50 53 56 60 63 65 67 69 70 69 68 67 69 71 75 79 83
31 30 29 29 29 29 29 29 31 33 35 37 39 39 38 36 35 34 32 31 30 30 29 28 27 25 24 23 23 22 22 22 21 21 21 21 21 21 22 23 23 23 23 23 23 22 21 20 20 20 21 21 22 23 24 25 27 28 29 30 31 33 35 38 41 44 46 50 53 56 59 61 64 65 67 67 66 65 65 66 69 73 76 80 84
31 30 28 28 28 28 27 27 29 32 33 35 37 38 36 33 32 31 30 29 28 27 26 25 23 21 20 18 17 16 16 16 16 16 17 17 18 18 18 18 18 18 19 19 18 16 15 15 16 16 16 17 17 18 19 21 22 24 26 28 31 34 37 40 43 46 50 53 55 58 60 62 63 64 63 62 61 62 64 67 71 74 78 82 86
30 29 27 27 27 27 25 25 27 29 31 33 35 35 33 31 29 29 29 28 26 24 23 21 19 17 15 14 13 12 12 12 12 13 13 13 14 14 14 15 15 15 14 13 11 10 10 10 10 11 11 13 14 15 17 19 22 25 28 31 35 38 41 44 47 50 52 55 57 58 60 60 60 59 58 58 59 61 65 69 72 76 80 83 87
29 28 26 26 26 25 23 23 24 26 28 30 31 32 30 29 27 26 26 25 23 21 20 18 16 14 12 11 10 10 9 9 9 9 10 10 10 10 11 11 10 9 7 6 6 6 7 7 8 10 11 13 15 17 20 23 26 29 32 36 39 42 44 47 49 51 53 55 56 57 56 56 55 54 55 56 59 63 66 70 74 78 82 85 88
29 28 27 25 25 24 22 21 22 24 25 26 28 28 27 26 25 24 23 22 21 19 18 16 14 13 11 10 9 8 7 6 6 6 6 7 7 7 6 5 4 3 3 4 5 6 8 9 10 12 13 16 18 21 24 27 30 33 36 39 42 44 47 49 50 51 52 53 53 52 52 51 51 52 54 57 60 64 68 72 76 79 83 86 89
28 28 27 26 25 24 22 20 21 22 23 23 25 25 23 22 21 21 21 21 21 20 18 16 14 13 12 11 10 9 8 7 6 6 6 5 5 4 3 3 4 5 6 6 7 8 9 10 12 14 17 19 22 25 27 30 33 36 39 41 44 46 47 48 49 50 50 49 49 48 48 49 50 53 55 58 62 66 70 74 77 80 83 86 88
28 29 28 26 25 23 21 20 19 21 21 21 22 23 22 20 19 19 19 20 20 20 18 17 15 14 13 12 11 10 9 8 7 7 6 6 6 5 5 5 6 6 7 7 8 9 11 13 16 18 20 23 25 28 31 33 35 38 40 42 44 45 46 47 47 47 47 46 46 46 47 49 51 54 57 60 64 68 71 74 76 79 83 85 86
28 29 29 27 25 23 22 20 19 19 21 20 20 21 20 18 17 17 16 17 17 18 17 17 16 15 14 13 12 11 10 9 8 7 7 6 5 5 6 6 7 7 8 10 11 13 15 17 20 22 24 26 28 30 32 34 36 38 41 42 43 44 45 45 45 45 45 45 45 46 47 49 52 55 58 61 65 67 70 72 76 79 82 83 81
28 29 30 29 27 25 23 21 19 19 20 20 19 19 18 17 15 14 14 14 14 14 14 14 14 14 13 12 11 10 9 8 6 6 5 5 6 7 7 8 9 10 12 14 16 17 19 21 23 24 26 28 29 30 32 34 36 39 40 42 42 43 43 44 44 43 44 44 45 46 48 50 52 55 58 61 63 65 68 72 76 79 80 79 77
27 28 30 30 28 26 24 22 20 19 20 20 19 17 16 15 13 12 12 11 11 10 11 11 11 10 10 9 9 8 8 7 6 6 7 7 8 9 10 11 12 14 15 16 18 19 21 22 24 25 26 27 28 30 32 34 37 39 40 41 42 43 43 43 43 43 43 43 44 46 47 49 52 54 56 58 60 64 69 73 76 77 77 75 73
28 27 29 31 30 28 26 24 22 20 20 20 19 17 15 14 12 11 10 9 8 8 8 8 8 8 8 7 7 7 7 7 7 8 9 10 10 11 12 13 14 15 16 18 19 21 22 23 24 25 26 27 29 31 33 35 37 39 40 41 42 43 43 43 43 43 43 43 44 45 46 48 50 51 53 56 61 65 70 73 75 75 74 72 70
30 28 28 30 31 30 28 26 24 22 21 21 21 19 16 15 13 11 9 8 7 6 6 6 6 6 6 6 6 6 7 8 9 10 10 11 11 12 13 14 15 16 18 19 21 22 23 24 25 26 27 28 30 31 33 35 37 39 40 42 43 43 44 44 44 43 43 42 43 44 45 46 48 50 53 58 63 67 70 72 73 73 72 70 68
33 30 28 29 30 31 30 28 27 25 23 22 22 21 19 17 15 14 12 10 8 7 5 5 4 4 4 4 5 5 7 8 8 8 9 9 10 11 12 14 15 16 18 19 21 22 24 25 27 28 29 30 31 33 34 36 38 40 41 42 44 45 45 45 45 44 43 42 42 43 44 45 47 51 55 60 64 68 70 71 72 71 70 68 66
36 33 30 29 30 31 31 30 29 28 26 24 24 23 21 19 18 17 15 13 11 10 8 6 5 3 3 2 3 3 5 5 6 6 7 8 9 11 12 13 14 16 17 19 21 22 24 26 28 29 31 32 33 34 36 37 38 40 42 44 45 46 47 47 46 45 43 43 43 43 44 46 49 53 58 62 65 68 70 70 70 70 68 66 64
39 35 33 31 30 31 32 32 31 30 29 27 26 25 24 22 21 19 18 16 14 12 11 9 7 6 5 3 2 2 2 2 3 4 5 7 8 10 11 12 14 15 17 18 20 22 24 26 28 30 32 33 35 36 37 38 39 41 43 44 46 47 48 49 48 46 45 43 43 44 45 47 51 55 59 63 66 68 70 70 69 68 67 65 63
43 38 35 33 32 31 33 34 34 33 32 30 29 28 27 26 24 22 21 19 17 15 13 12 10 9 8 7 6 5 4 4 4 4 5 7 8 9 11 12 13 15 16 18 20 22 24 26 28 30 32 34 36 37 39 40 41 42 43 45 47 49 50 50 50 48 46 45 44 45 46 49 53 57 61 64 67 69 69 69 69 68 66 64 63
Wind_Direction
241 241 241 241 241 242 242 243 244 244 245 245 246 247 248 249 250 251 253 254 255 255 256 257 258 258 259 259 260 260 261 261 262 263 264 264 265 265 266 267 267 268 269 269 270 271 271 272 273 274 274 275 276 277 277 278 278 279 280 281 282 283 285 286 287 287 287 287 288 288 288 288 287 287 288 289 291 292 292 293 293 293 293 293 294
242 242 242 242 242 242 243 244 244 245 246 246 247 248 249 250 251 252 253 254 255 256 256 257 258 259 259 260 260 261 261 261 262 262 263 263 264 265 265 266 267 267 268 269 269 270 271 272 272 273 274 275 276 277 277 278 278 279 280 281 282 284 285 285 286 286 286 287 287 287 287 287 287 286 287 289 291 292 292 292 292 292 293 294 295
244 244 244 244 244 244 244 244 245 245 246 247 247 248 249 249 250 251 252 253 254 255 256 257 258 259 259 260 261 261 262 262 263 263 263 263 264 264 265 266 266 267 268 269 269 270 270 271 272 273 274 275 275 276 277 278 279 280 281 282 283 284 284 285 285 285 286 286 286 286 286 286 285 286 287 289 291 291 291 292 292 293 293 294 295
245 246 246 246 246 246 246 246 246 246 246 247 248 249 249 250 251 251 252 253 254 255 256 256 257 258 259 260 261 261 262 262 263 263 263 264 264 265 265 266 266 267 268 269 269 270 271 271 272 273 274 275 276 277 277 278 279 280 281 282 282 283 284 284 284 285 285 285 285 285 285 285 285 286 288 289 290 291 291 291 292 293 293 294 294
246 246 247 247 248 248 248 248 248 248 247 248 248 249 249 250 251 252 252 253 254 254 255 256 257 258 259 259 260 261 261 262 263 263 264 264 265 265 266 266 267 267 268 269 269 270 271 272 272 273 274 275 276 277 277 278 279 280 280 281 282 283 283 283 284 284 284 284 284 284 284 284 284 286 288 289 290 290 291 291 292 293 293 293 294
247 247 247 247 248 248 249 249 249 250 249 249 249 250 250 251 251 252 253 253 254 255 256 256 257 258 259 259 260 261 261 262 262 263 263 264 265 265 266 266 267 267 268 269 269 270 271 272 273 274 275 275 276 276 277 277 278 279 280 281 281 282 282 282 282 282 283 283 283 283 283 283 285 287 288 289 289 290 290 291 292 292 293 294 294
247 247 248 248 248 248 249 249 250 250 251 251 251 251 251 252 252 253 253 254 254 255 256 257 257 258 259 260 260 261 261 262 262 263 263 264 265 265 266 266 267 268 268 269 269 270 271 272 273 274 274 275 275 276 276 277 278 278 279 279 280 280 281 281 281 281 282 282 282 282 282 284 286 287 288 288 289 289 290 291 292 292 293 294 294
248 248 248 248 249 249 249 250 250 251 251 252 252 253 253 253 253 253 253 254 254 255 256 257 257 258 259 260 260 261 262 263 263 264 264 265 265 266 266 267 267 268 269 269 270 270 271 271 272 273 273 274 274 275 276 276 277 277 278 278 279 279 280 280 280 281 282 282 282 282 283 285 286 286 287 287 288 289 290 291 292 293 293 294 294
251 250 250 250 250 250 250 251 251 251 252 252 253 253 253 254 254 254 254 254 255 255 255 256 257 257 258 259 260 261 262 263 264 264 265 266 266 266 267 267 268 268 269 269 270 270 270 271 271 272 272 273 273 274 275 275 276 277 277 278 278 279 279 280 281 281 281 282 282 283 284 285 285 285 286 287 288 289 290 291 292 292 293 294 294
251 252 252 252 252 252 252 252 252 252 252 253 253 253 254 254 254 255 255 255 255 255 256 256 257 257 258 258 259 260 261 262 263 263 264 265 265 266 266 267 267 268 268 268 269 269 270 270 271 271 272 272 273 274 274 275 276 276 277 277 278 278 279 280 280 280 281 281 281 282 283 283 284 285 286 287 288 289 290 291 292 292 292 293 293
251 251 251 252 252 253 253 253 253 253 253 253 253 253 254 254 254 255 255 256 256 256 257 257 257 258 258 259 259 259 260 261 261 262 263 263 264 264 265 265 266 266 266 266 266 267 267 268 268 269 270 270 271 272 272 273 273 274 275 276 276 277 278 278 279 279 280 280 281 282 283 283 284 285 286 287 288 290 290 291 291 291 292 292 293
249 250 251 251 252 252 253 253 254 254 254 254 254 254 254 254 255 255 256 256 257 257 258 258 258 258 259 259 259 260 260 260 261 261 262 262 263 264 264 265 265 265 265 265 266 266 266 267 267 268 269 269 270 270 271 272 272 273 274 275 276 276 277 278 279 280 280 281 282 283 283 284 285 286 287 288 289 290 290 290 290 290 291 292 293
247 248 249 250 251 252 252 253 254 254 255 255 256 255 255 255 256 256 256 256 257 257 258 258 259 259 259 260 260 260 261 261 261 262 262 262 263 263 264 264 265 265 265 266 266 267 268 268 269 270 270 271 271 272 272 273 274 275 275 276 277 278 278 279 280 281 281 282 283 284 284 285 286 286 287 288 289 289 289 289 289 290 291 293 293
246 247 247 249 250 251 252 253 254 255 256 257 258 259 259 259 259 259 259 259 259 259 260 260 260 260 260 260 261 261 261 261 262 262 262 263 263 264 264 265 265 265 266 266 267 267 268 269 270 271 272 272 273 274 275 275 276 277 277 278 279 280 280 281 281 282 282 283 284 284 285 285 285 286 287 287 288 288 288 288 289 291 292 293 293
251 251 251 251 252 253 254 254 255 256 257 258 259 260 261 262 262 263 263 263 263 263 263 263 263 263 263 262 262 262 262 263 263 263 263 263 264 264 265 265 266 266 267 267 268 268 269 270 270 271 272 272 273 274 275 276 277 277 278 279 279 280 280 281 281 281 282 283 283 283 284 284 285 285 286 286 287 287 288 289 290 291 292 293 293
257 257 257 257 257 257 258 258 258 259 259 259 260 260 261 261 262 262 263 264 264 264 264 264 265 265 265 264 264 264 264 264 264 264 264 265 265 265 265 266 267 267 268 268 269 269 270 270 271 271 271 272 273 273 274 275 276 277 277 278 279 279 279 280 280 281 281 282 282 282 283 283 284 285 285 286 287 287 288 290 291 292 292 293 293
260 259 259 259 259 259 259 260 260 260 260 260 260 261 261 261 262 262 262 263 263 264 264 265 265 265 265 266 266 266 266 266 266 266 266 266 266 266 267 267 268 268 269 269 269 270 270 271 271 271 272 272 273 273 274 275 275 276 277 277 278 278 278 279 280 280 281 282 282 282 283 283 284 285 286 286 287 288 289 290 291 292 292 292 293
263 263 262 262 261 260 260 260 260 261 261 261 262 262 263 263 263 264 264 264 264 265 265 265 266 266 267 267 267 267 267 268 268 268 268 268 268 268 268 268 269 269 270 270 271 271 271 271 272 272 273 273 273 274 274 275 275 276 276 276 277 277 278 278 279 280 281 281 281 282 283 283 284 285 286 287 287 288 290 290 291 291 292 292 292
268 268 268 268 267 266 265 265 264 264 264 264 264 264 264 264 264 264 264 265 265 265 266 266 267 267 267 268 268 268 269 269 269 269 270 270 270 270 270 270 270 270 271 272 272 272 272 272 272 273 273 273 273 274 274 275 275 275 275 276 276 276 277 278 279 280 280 281 281 282 282 283 284 285 286 287 288 289 290 290 290 290 291 291 292
268 268 268 268 269 269 268 268 268 267 267 267 267 266 266 266 266 267 267 267 267 268 268 268 268 269 269 269 269 270 270 270 271 271 271 271 271 271 271 270 271 272 272 273 273 273 273 273 273 273 274 274 274 274 274 274 274 274 275 275 275 276 277 278 279 279 280 281 281 282 283 284 285 286 287 288 288 289 289 289 290 290 291 292 293
269 268 268 267 267 267 268 268 268 269 269 269 269 269 269 269 269 269 270 270 270 271 271 272 272 272 272 272 272 272 272 272 272 272 272 272 272 271 271 271 272 272 273 273 273 273 274 274 274 274 274 275 275 275 275 274 274 275 275 275 276 277 277 278 279 279 280 281 281 282 283 284 285 286 287 288 288 289 289 290 290 291 292 294 296
270 270 270 269 269 269 269 269 269 270 270 271 271 272 272 272 272 272 272 273 273 273 273 273 273 274 274 274 274 274 274 274 274 274 274 273 273 273 273 273 273 273 273 273 273 273 274 274 274 274 275 275 275 275 275 275 275 275 275 276 277 277 278 278 279 280 280 280 281 282 283 284 285 286 287 288 289 289 290 291 292 293 295 297 297
272 272 272 273 273 273 272 272 272 273 273 273 274 274 274 275 275 275 275 275 275 274 274 274 274 274 274 274 274 274 275 274 274 274 274 273 273 273 273 273 273 273 273 273 273 274 274 274 274 275 275 275 275 275 275 275 275 276 276 277 277 278 278 279 279 279 279 279 280 281 283 284 286 286 287 288 289 291 292 292 293 295 297 298 298
275 275 275 275 275 275 275 275 275 274 274 274 274 274 275 275 275 275 276 276 276 276 276 276 276 276 276 276 276 276 276 275 274 274 274 274 274 274 274 273 273 273 273 273 274 274 274 274 275 275 275 275 275 275 275 275 275 275 276 277 277 278 278 278 277 277 277 279 280 282 283 285 285 286 287 289 290 291 292 293 295 297 298 299 299
281 280 280 280 280 280 279 279 278 276 276 276 275 275 275 276 276 277 277 278 278 278 278 279 279 279 279 279 279 278 278 277 276 275 275 275 275 275 275 274 274 275 275 275 276 276 276 276 276 276 276 276 276 275 275 274 274 274 274 275 275 275 275 274 275 276 277 279 281 282 283 283 284 286 288 289 290 292 293 295 297 298 299 299 300
284 285 285 285 286 286 286 285 284 282 281 280 279 279 279 279 279 279 279 279 280 281 281 282 282 281 281 281 280 280 279 278 278 278 278 279 278 278 278 278 278 279 279 279 279 280 280 279 279 279 278 278 278 277 276 275 274 273 273 273 272 272 272 273 274 276 278 279 280 281 282 283 285 287 289 290 292 294 296 297 298 298 299 300 302
283 285 286 287 287 287 287 287 287 287 287 286 286 285 284 284 283 282 282 282 282 282 282 282 281 281 281 280 280 279 279 279 279 279 280 280 280 280 281 281 282 283 283 283 283 284 284 283 282 281 281 280 280 279 277 276 275 274 272 271 270 271 272 273 275 276 277 279 280 282 283 285 287 289 291 293 295 297 298 298 299 300 301 303 304
282 283 284 285 285 284 284 285 286 288 289 289 289 288 287 286 285 284 283 282 282 281 280 280 280 280 280 279 279 279 279 279 278 278 278 278 278 279 280 281 283 284 284 284 285 285 285 284 283 283 282 282 281 279 277 276 275 273 271 270 271 272 273 273 274 276 277 279 281 283 285 287 289 291 294 296 298 298 298 299 300 302 303 304 305
283 284 284 284 284 283 283 285 287 290 291 290 289 288 287 286 286 285 284 283 282 282 281 280 280 279 279 278 278 277 277 277 277 277 277 277 277 278 279 280 282 282 282 283 284 285 284 284 284 284 284 282 280 278 277 276 274 273 271 271 271 271 271 272 273 275 277 280 282 285 287 289 292 294 296 298 298 299 299 301 302 303 304 306 307
287 288 287 286 284 284 285 287 289 291 291 290 289 288 288 288 288 288 287 286 285 284 283 281 280 278 277 276 275 274 274 274 275 276 276 277 277 278 279 280 281 280 280 282 283 284 285 285 286 286 284 282 280 279 278 277 275 274 272 271 270 270 270 270 273 276 279 282 286 288 290 293 295 296 297 297 299 300 301 302 303 305 306 307 309
291 291 290 289 288 288 289 290 290 290 290 290 292 293 294 293 292 291 290 289 288 287 285 283 281 279 277 275 274 272 272 272 274 275 276 277 278 279 280 279 278 278 279 282 284 285 286 287 288 286 285 282 281 280 279 277 276 274 272 272 271 271 270 272 275 279 283 286 290 292 294 296 296 296 297 299 300 301 302 304 305 306 307 309 311
292 292 291 291 292 292 292 293 293 294 295 297 299 300 301 300 298 296 294 293 291 289 287 285 283 281 278 276 274 272 272 272 273 275 276 277 278 278 277 276 276 278 280 283 284 286 288 289 289 288 285 283 281 280 279 278 278 276 275 274 274 273 273 276 280 283 287 291 293 295 296 296 296 297 299 300 302 303 304 305 306 307 308 311 313
292 291 292 294 294 294 295 295 297 300 302 304 306 306 306 305 303 302 300 299 297 295 293 290 288 284 280 277 275 273 273 273 273 274 275 275 274 273 274 275 278 280 282 284 286 289 290 290 290 288 286 284 282 281 281 281 280 278 277 276 276 277 279 282 286 289 292 294 296 296 296 297 298 299 300 302 303 304 305 306 307 308 310 312 313
292 291 293 295 295 295 295 298 301 303 306 309 310 311 311 310 309 308 308 307 305 303 301 298 295 291 285 280 277 274 272 271 270 270 270 270 271 273 275 278 279 280 283 286 289 291 291 290 289 288 287 286 285 284 283 282 280 279 278 279 281 284 288 291 293 295 295 296 297 297 298 298 299 300 301 302 303 304 305 306 308 309 311 313 313
291 291 292 293 293 293 295 299 303 307 311 314 316 316 317 316 314 314 313 312 309 306 305 304 302 298 293 287 281 275 270 266 265 266 267 270 272 275 277 278 279 282 286 290 291 291 290 288 287 287 288 288 288 287 285 285 286 288 290 292 294 296 297 297 297 297 297 298 299 299 299 300 300 301 302 303 304 305 306 307 309 310 312 312 313
291 292 292 291 291 293 297 304 309 313 317 320 321 322 322 320 319 319 319 317 314 313 313 313 310 307 301 294 286 278 271 267 266 267 269 271 272 274 276 279 283 288 291 291 291 290 289 290 291 293 294 294 294 294 295 296 298 301 303 303 303 302 301 300 301 301 301 301 300 300 300 301 301 302 303 303 304 305 306 308 309 311 312 313 314
292 292 293 292 292 295 301 308 313 317 322 325 326 326 326 325 327 328 327 324 322 321 320 318 316 313 308 301 294 286 280 275 273 272 272 273 275 278 282 287 291 292 291 290 291 294 298 301 304 306 308 310 310 309 310 311 310 310 310 308 307 307 306 305 305 304 303 302 302 301 301 301 302 303 303 304 304 305 307 308 309 311 312 314 315
292 293 293 293 293 297 303 310 315 320 325 328 329 329 330 332 335 336 334 330 328 326 323 321 320 319 315 311 305 299 293 288 284 282 281 283 286 289 292 294 294 293 294 298 304 312 321 326 328 330 332 332 330 327 325 323 321 319 317 315 314 312 311 309 308 306 304 303 303 302 302 302 303 303 304 304 305 306 307 308 310 312 313 315 317
294 294 294 293 294 298 304 311 316 320 326 330 332 333 335 338 341 342 340 336 332 330 328 328 327 327 324 320 315 310 306 301 297 295 296 298 300 302 303 303 302 305 313 323 336 350 359 1 359 355 350 344 340 335 332 329 326 323 321 319 317 315 313 311 309 307 305 304 303 303 303 303 303 303 304 304 305 306 308 309 311 313 315 316 318
296 295 295 293 294 298 303 309 313 318 323 328 331 334 338 343 346 347 347 345 342 341 341 341 342 342 340 338 336 334 331 328 327 327 326 327 327 327 326 326 333 354 19 29 31 30 24 14 5 356 349 343 338 335 331 328 326 323 321 320 318 316 314 312 310 308 306 305 304 304 304 304 304 304 304 304 305 307 309 310 312 314 316 318 320
298 296 295 293 293 295 299 303 308 312 317 323 327 331 337 345 350 354 357 357 355 354 354 355 357 360 1 3 5 6 9 12 12 11 11 12 17 30 46 59 64 66 59 49 38 27 15 3 354 347 341 337 334 331 328 326 324 323 321 320 318 317 315 313 311 310 308 306 306 305 304 304 304 304 304 305 307 308 310 312 314 316 318 320 321
299 296 294 292 291 292 294 297 302 306 311 317 322 325 332 341 350 358 5 8 8 5 5 7 11 15 17 18 20 22 27 34 40 47 57 69 80 88 88 80 67 57 45 32 18 6 358 350 344 339 335 332 330 327 326 325 324 323 322 321 319 318 317 315 314 312 310 309 307 306 306 306 305 305 306 307 309 310 312 314 316 319 320 321 322
299 295 294 292 290 289 290 292 297 301 306 310 316 320 326 334 345 356 6 13 16 15 14 16 21 25 29 30 32 36 42 50 57 64 72 78 78 73 65 54 42 30 18 8 360 353 347 342 337 333 331 329 327 327 326 325 325 324 324 323 322 322 321 319 318 315 313 311 309 308 308 308 308 308 309 310 311 313 315 317 319 321 322 323 324
300 294 292 291 289 288 287 289 292 296 299 302 307 313 318 326 336 347 356 6 13 16 15 16 19 24 28 30 30 31 35 38 41 45 48 48 47 45 39 31 21 12 4 358 352 346 342 337 334 332 330 329 329 328 327 327 327 327 328 328 327 327 326 324 322 319 315 313 311 311 311 311 311 311 312 313 315 317 319 321 322 323 324 326 327
302 293 290 290 288 286 284 285 286 288 291 293 297 301 307 314 323 333 342 351 1 6 7 8 10 13 17 19 19 18 17 16 18 24 29 32 33 31 26 20 14 8 3 357 352 348 344 341 338 336 334 332 331 330 330 331 331 332 333 333 333 332 331 329 326 322 319 317 315 315 314 314 314 315 316 318 320 322 323 324 325 326 327 329 330
307 295 289 287 286 284 281 280 280 280 282 284 286 289 293 299 306 315 324 332 342 349 353 356 359 1 3 7 12 16 18 19 23 27 29 30 30 28 25 22 18 13 9 4 360 356 352 348 345 342 339 337 335 334 334 334 335 336 337 338 338 337 336 334 331 327 324 322 320 319 318 318 318 320 322 324 325 325 326 326 328 329 330 332 332
313 300 289 285 284 282 279 276 274 274 274 275 277 278 280 284 289 294 300 307 315 324 333 340 347 352 356 3 13 25 33 34 34 33 32 32 32 31 28 24 20 17 13 9 5 1 357 354 351 347 344 341 339 338 337 338 338 339 340 341 341 340 339 338 335 332 329 327 325 324 323 323 325 326 328 328 328 328 329 329 331 332 334 335 335
317 306 294 285 281 280 277 274 271 269 268 269 269 270 270 272 276 279 283 287 289 292 298 307 320 335 349 0 15 34 44 44 41 37 34 31 29 27 24 20 17 14 11 7 4 1 358 356 354 351 349 346 344 342 340 340 340 341 342 343 343 343 342 341 339 337 334 331 329 328 328 329 330 331 331 331 331 331 331 332 334 336 337 337 336
321 311 301 289 281 277 275 272 269 266 264 264 264 263 263 264 267 270 273 275 276 277 277 278 282 289 308 334 5 32 45 47 40 31 24 21 19 17 14 12 10 8 5 3 1 358 356 355 354 353 351 349 347 345 343 342 342 342 343 344 345 345 345 344 343 340 337 335 333 333 333 334 334 334 334 333 333 334 334 335 337 339 339 339 338
326 316 306 296 285 278 273 271 267 264 262 261 259 259 258 258 260 263 265 267 268 268 267 267 267 266 268 274 290 322 1 14 9 3 2 3 3 1 0 0 360 359 358 357 356 355 354 353 353 352 351 350 349 348 346 344 343 343 344 345 346 347 347 347 345 343 340 338 337 336 336 336 337 336 336 336 336 336 337 338 340 341 342 341 339
330 321 311 302 292 282 275 270 267 264 262 259 257 256 255 255 255 257 259 260 261 260 258 257 257 257 257 259 264 268 275 287 302 314 324 332 336 338 341 344 346 347 348 348 349 350 351 351 351 351 350 350 349 349 348 346 345 344 344 346 347 348 348 348 347 345 342 340 339 338 338 338 338 338 338 338 338 338 339 341 343 344 344 342 341
Height
10369 10372 10375 10378 10381 10383 10386 10389 10391 10393 10395 10398 10399 10400 10401 10403 10404 10405 10406 10406 10406 10407 10409 10409 10410 10412 10413 10414 10415 10415 10416 10416 10417 10417 10418 10417 10416 10416 10415 10414 10414 10413 10411 10410 10409 10407 10406 10404 10403 10401 10398 10396 10395 10393 10391 10388 10386 10383 10381 10378 10375 10373 10370 10368 10366 10363 10360 10356 10352 10349 10344 10339 10333 10326 10321 10322 10321 10319 10315 10310 10303 10297 10291 10286 10282
10359 10362 10365 10368 10371 10374 10377 10380 10382 10384 10386 10388 10390 10391 10392 10393 10394 10396 10396 10396 10397 10398 10398 10398 10399 10401 10402 10402 10402 10403 10403 10404 10405 10406 10407 10406 10405 10404 10403 10403 10403 10401 10400 10399 10397 10395 10395 10394 10392 10389 10386 10385 10384 10381 10379 10376 10374 10372 10369 10366 10364 10362 10360 10357 10354 10351 10348 10345 10341 10337 10332 10327 10320 10313 10310 10311 10311 10308 10303 10297 10291 10285 10278 10273 10270
10351 10354 10357 10359 10362 10365 10368 10370 10372 10374 10376 10378 10379 10380 10381 10382 10383 10385 10385 10386 10387 10387 10387 10388 10389 10389 10390 10390 10390 10391 10391 10392 10393 10394 10394 10394 10393 10392 10392 10392 10392 10390 10389 10387 10385 10384 10383 10383 10381 10377 10375 10374 10372 10370 10367 10364 10362 10359 10357 10355 10353 10351 10348 10345 10342 10339 10336 10333 10329 10325 10321 10315 10307 10302 10300 10301 10300 10297 10291 10284 10279 10273 10266 10260 10257
10344 10346 10348 10350 10353 10355 10357 10360 10362 10364 10365 10367 10368 10369 10370 10371 10372 10374 10374 10375 10376 10376 10376 10377 10378 10378 10378 10378 10378 10379 10379 10380 10380 10381 10381 10381 10381 10381 10380 10380 10380 10379 10377 10375 10373 10371 10371 10371 10368 10365 10363 10363 10361 10358 10355 10352 10350 10348 10346 10344 10341 10340 10337 10334 10331 10327 10324 10322 10318 10314 10309 10302 10295 10291 10291 10291 10289 10284 10278 10272 10266 10261 10255 10248 10243
10336 10338 10340 10342 10344 10345 10347 10349 10351 10353 10354 10356 10357 10358 10359 10360 10361 10362 10363 10363 10364 10364 10365 10365 10366 10366 10366 10365 10366 10367 10367 10367 10368 10368 10368 10367 10368 10368 10368 10368 10368 10367 10366 10364 10361 10360 10359 10359 10356 10353 10353 10352 10349 10345 10342 10339 10338 10336 10334 10332 10330 10328 10325 10323 10320 10316 10312 10310 10307 10303 10297 10289 10284 10283 10282 10280 10277 10272 10266 10260 10254 10247 10242 10236 10230
10328 10330 10332 10333 10335 10336 10337 10339 10340 10342 10343 10345 10347 10348 10348 10349 10350 10350 10351 10352 10352 10353 10353 10354 10354 10354 10354 10353 10354 10354 10354 10354 10355 10355 10355 10354 10355 10356 10355 10355 10355 10354 10353 10352 10350 10348 10347 10346 10344 10342 10341 10339 10336 10332 10329 10328 10327 10325 10323 10320 10318 10316 10314 10311 10308 10305 10301 10298 10296 10291 10284 10277 10274 10275 10272 10268 10264 10259 10253 10248 10241 10234 10228 10223 10216
10319 10321 10323 10325 10326 10327 10328 10329 10330 10332 10333 10334 10335 10336 10337 10338 10339 10339 10340 10341 10341 10342 10342 10342 10342 10342 10342 10341 10341 10341 10341 10342 10342 10342 10341 10342 10342 10343 10342 10342 10342 10341 10340 10339 10338 10337 10335 10333 10332 10331 10329 10326 10322 10320 10318 10317 10315 10313 10311 10309 10307 10304 10302 10300 10297 10294 10291 10287 10284 10278 10272 10268 10266 10264 10261 10257 10253 10247 10242 10237 10230 10222 10215 10209 10202
10311 10313 10314 10315 10316 10317 10319 10320 10321 10322 10323 10323 10324 10325 10326 10327 10327 10328 10329 10329 10330 10330 10331 10331 10330 10330 10330 10329 10329 10329 10329 10329 10328 10329 10329 10329 10330 10329 10329 10328 10328 10328 10327 10326 10325 10324 10323 10321 10319 10318 10316 10313 10310 10308 10307 10305 10303 10301 10299 10297 10295 10293 10291 10288 10285 10282 10279 10276 10271 10265 10261 10259 10256 10252 10248 10245 10241 10235 10230 10226 10220 10211 10202 10195 10187
10302 10303 10305 10306 10307 10308 10309 10310 10311 10312 10312 10313 10314 10314 10315 10315 10316 10316 10317 10318 10318 10319 10319 10319 10318 10318 10318 10319 10319 10318 10317 10316 10316 10317 10317 10317 10317 10316 10316 10315 10315 10315 10314 10313 10311 10310 10310 10309 10307 10306 10304 10301 10299 10298 10296 10293 10291 10290 10288 10286 10283 10281 10279 10276 10273 10271 10267 10263 10258 10254 10252 10248 10243 10239 10236 10232 10228 10223 10218 10214 10209 10201 10193 10184 10173
10294 10294 10295 10296 10297 10298 10299 10299 10300 10301 10301 10302 10302 10303 10304 10304 10304 10305 10305 10306 10306 10307 10307 10307 10306 10306 10307 10308 10308 10307 10306 10304 10305 10306 10305 10305 10304 10304 10304 10303 10303 10302 10301 10300 10299 10297 10297 10296 10295 10293 10292 10290 10288 10287 10284 10281 10279 10278 10276 10274 10271 10269 10267 10264 10262 10258 10255 10251 10247 10243 10241 10236 10230 10226 10224 10219 10215 10211 10206 10202 10197 10190 10182 10176 10165
10285 10286 10286 10287 10287 10287 10288 10288 10288 10289 10290 10290 10291 10291 10292 10292 10293 10293 10294 10294 10295 10295 10295 10295 10295 10296 10296 10296 10296 10295 10294 10293 10293 10294 10293 10293 10292 10292 10292 10291 10290 10289 10288 10287 10286 10285 10284 10284 10282 10281 10280 10278 10276 10275 10273 10270 10268 10266 10264 10262 10260 10257 10255 10253 10250 10246 10242 10239 10235 10231 10229 10224 10217 10214 10211 10206 10202 10198 10193 10188 10183 10178 10170 10165 10158
10277 10277 10277 10277 10277 10277 10277 10277 10277 10277 10278 10278 10279 10279 10280 10280 10281 10282 10282 10282 10283 10283 10283 10283 10284 10284 10284 10284 10284 10283 10282 10280 10281 10282 10281 10281 10281 10280 10279 10278 10277 10276 10274 10274 10273 10272 10271 10271 10270 10269 10267 10266 10264 10262 10260 10258 10256 10254 10252 10250 10247 10245 10243 10240 10237 10234 10230 10226 10223 10219 10216 10211 10205 10201 10198 10195 10191 10186 10180 10174 10170 10166 10159 10153 10148
10266 10266 10266 10266 10267 10267 10266 10266 10266 10266 10267 10267 10267 10268 10268 10269 10270 10270 10270 10270 10271 10271 10271 10271 10271 10271 10271 10271 10271 10270 10269 10268 10269 10270 10269 10269 10269 10268 10267 10265 10264 10262 10260 10260 10260 10259 10258 10257 10256 10255 10253 10251 10250 10249 10247 10245 10243 10241 10239 10237 10235 10232 10230 10227 10224 10220 10216 10212 10210 10207 10202 10198 10193 10189 10186 10184 10180 10173 10167 10162 10157 10153 10148 10142 10136
10256 10256 10256 10256 10256 10256 10256 10257 10257 10257 10258 10258 10257 10258 10258 10258 10259 10259 10259 10259 10259 10259 10259 10259 10259 10259 10259 10258 10257 10256 10255 10255 10257 10257 10256 10256 10256 10256 10254 10252 10250 10249 10247 10246 10246 10246 10246 10245 10243 10242 10239 10237 10236 10234 10232 10230 10229 10227 10225 10223 10221 10219 10216 10213 10210 10206 10202 10200 10198 10193 10189 10185 10181 10178 10175 10173 10168 10162 10155 10150 10144 10142 10138 10130 10123
10250 10250 10249 10249 10249 10249 10249 10249 10249 10250 10250 10250 10250 10249 10249 10249 10249 10248 10248 10248 10247 10247 10247 10247 10246 10246 10245 10245 10244 10243 10242 10242 10244 10244 10243 10242 10244 10245 10242 10237 10235 10235 10233 10232 10233 10234 10233 10232 10230 10228 10226 10225 10223 10220 10219 10217 10215 10213 10211 10209 10207 10205 10203 10200 10196 10193 10190 10189 10186 10181 10177 10173 10170 10167 10165 10161 10156 10149 10143 10138 10133 10131 10126 10118 10110
10244 10244 10243 10243 10243 10243 10242 10242 10242 10242 10242 10242 10241 10241 10240 10239 10239 10239 10238 10237 10236 10236 10235 10234 10234 10233 10232 10232 10231 10230 10228 10229 10230 10230 10229 10229 10230 10232 10230 10224 10220 10220 10219 10219 10220 10220 10219 10217 10216 10214 10213 10211 10209 10208 10206 10204 10202 10200 10198 10197 10195 10192 10190 10187 10183 10181 10180 10178 10174 10169 10165 10162 10159 10156 10153 10149 10145 10138 10132 10127 10123 10119 10114 10107 10099
10236 10235 10235 10235 10235 10235 10235 10234 10233 10233 10233 10232 10231 10231 10230 10230 10229 10229 10228 10226 10225 10225 10224 10223 10222 10221 10220 10220 10219 10217 10215 10216 10217 10217 10216 10216 10217 10218 10217 10212 10207 10205 10204 10205 10207 10207 10205 10203 10201 10200 10199 10197 10195 10195 10194 10191 10189 10188 10186 10184 10182 10180 10177 10174 10171 10171 10170 10166 10162 10158 10153 10150 10147 10144 10141 10137 10133 10127 10121 10116 10112 10107 10102 10095 10089
10228 10227 10227 10227 10226 10226 10226 10225 10224 10224 10223 10223 10222 10221 10221 10220 10220 10219 10218 10217 10215 10215 10214 10213 10211 10210 10210 10208 10207 10206 10204 10204 10205 10204 10204 10204 10205 10204 10203 10200 10194 10191 10191 10192 10193 10193 10190 10188 10187 10186 10185 10183 10182 10182 10181 10179 10177 10176 10173 10171 10170 10167 10164 10161 10161 10160 10158 10154 10150 10146 10143 10139 10136 10133 10129 10125 10121 10117 10111 10105 10099 10095 10089 10083 10079
10222 10221 10220 10220 10219 10219 10218 10218 10217 10216 10215 10214 10214 10213 10211 10211 10210 10209 10208 10207 10206 10205 10204 10203 10201 10200 10199 10197 10196 10194 10193 10192 10193 10192 10191 10192 10192 10191 10190 10187 10181 10178 10179 10180 10180 10179 10177 10174 10173 10172 10171 10170 10170 10169 10168 10166 10165 10163 10161 10159 10157 10154 10151 10150 10150 10149 10146 10142 10139 10135 10132 10128 10124 10121 10118 10113 10110 10106 10101 10095 10089 10083 10078 10072 10068
10216 10215 10214 10213 10212 10212 10211 10210 10209 10208 10207 10206 10205 10204 10203 10202 10201 10200 10199 10198 10196 10195 10194 10193 10192 10190 10188 10187 10186 10184 10182 10182 10181 10181 10180 10180 10180 10179 10177 10174 10170 10168 10168 10168 10167 10165 10163 10162 10160 10159 10158 10158 10157 10156 10155 10153 10151 10150 10148 10146 10144 10142 10141 10140 10139 10136 10133 10131 10127 10124 10121 10117 10113 10110 10106 10101 10098 10095 10090 10084 10078 10072 10068 10063 10058
10209 10208 10207 10206 10205 10204 10204 10203 10201 10200 10199 10198 10197 10195 10194 10194 10192 10191 10190 10189 10187 10186 10185 10183 10182 10179 10178 10177 10175 10173 10172 10171 10170 10169 10169 10168 10167 10167 10165 10162 10160 10159 10159 10157 10155 10153 10151 10150 10148 10146 10146 10145 10144 10143 10141 10139 10138 10137 10135 10133 10132 10131 10131 10129 10126 10124 10122 10118 10115 10112 10109 10106 10103 10099 10095 10091 10087 10083 10078 10073 10067 10062 10058 10053 10049
10201 10200 10199 10198 10198 10197 10196 10195 10194 10193 10191 10190 10189 10186 10185 10185 10184 10182 10181 10180 10179 10177 10175 10174 10172 10170 10168 10166 10165 10163 10161 10160 10159 10158 10157 10156 10155 10154 10154 10152 10150 10149 10147 10145 10142 10141 10140 10138 10136 10134 10134 10133 10131 10130 10128 10126 10125 10124 10122 10121 10121 10121 10119 10117 10115 10113 10110 10107 10104 10101 10098 10096 10093 10089 10084 10080 10077 10072 10068 10063 10057 10053 10048 10043 10039
10195 10194 10192 10191 10190 10189 10188 10188 10187 10186 10184 10183 10181 10179 10177 10176 10175 10174 10172 10171 10169 10167 10166 10164 10163 10160 10158 10156 10155 10153 10151 10150 10148 10146 10145 10144 10144 10143 10142 10141 10139 10137 10136 10133 10131 10130 10129 10127 10125 10123 10122 10121 10119 10117 10115 10114 10113 10112 10111 10111 10111 10110 10108 10106 10104 10101 10098 10096 10094 10091 10089 10086 10083 10078 10074 10071 10067 10063 10058 10053 10048 10044 10039 10032 10027
10189 10188 10187 10185 10184 10183 10182 10181 10180 10179 10178 10176 10174 10172 10170 10168 10167 10165 10164 10162 10160 10158 10156 10155 10153 10151 10149 10147 10145 10143 10141 10140 10138 10136 10134 10134 10134 10133 10132 10130 10128 10126 10124 10122 10120 10119 10118 10116 10114 10112 10111 10110 10107 10105 10104 10103 10103 10101 10101 10101 10101 10099 10097 10095 10092 10090 10088 10087 10085 10082 10080 10077 10073 10069 10066 10062 10059 10054 10049 10044 10040 10035 10029 10022 10015
10183 10182 10181 10179 10178 10177 10175 10174 10173 10172 10171 10169 10167 10165 10163 10161 10159 10157 10155 10154 10152 10149 10148 10146 10144 10142 10140 10138 10136 10133 10131 10129 10127 10126 10125 10124 10124 10122 10121 10119 10117 10116 10114 10112 10110 10109 10108 10106 10103 10102 10100 10098 10096 10094 10093 10092 10092 10091 10091 10092 10090 10088 10086 10083 10082 10081 10079 10078 10076 10074 10071 10068 10064 10061 10058 10054 10050 10046 10040 10035 10030 10025 10019 10012 10004
10177 10175 10174 10173 10172 10171 10169 10166 10165 10164 10163 10161 10159 10157 10156 10154 10151 10149 10147 10145 10143 10141 10139 10137 10134 10132 10130 10128 10125 10123 10121 10119 10117 10116 10115 10114 10113 10112 10111 10109 10108 10107 10105 10102 10100 10099 10098 10096 10093 10091 10090 10088 10086 10084 10083 10081 10081 10081 10081 10081 10079 10077 10075 10074 10073 10073 10071 10069 10068 10065 10062 10059 10056 10053 10050 10046 10042 10038 10032 10026 10020 10014 10008 10002 9994
10171 10170 10169 10168 10166 10165 10162 10160 10158 10156 10155 10154 10152 10150 10148 10146 10144 10141 10139 10137 10135 10132 10129 10127 10124 10122 10120 10118 10115 10113 10111 10109 10107 10107 10106 10104 10103 10102 10101 10100 10099 10098 10095 10093 10091 10090 10089 10086 10083 10081 10080 10078 10076 10074 10073 10072 10071 10071 10071 10070 10068 10068 10067 10067 10066 10064 10063 10061 10059 10057 10054 10051 10049 10046 10042 10038 10034 10029 10023 10017 10010 10004 9997 9991 9984
10166 10165 10164 10162 10160 10158 10156 10154 10152 10150 10148 10147 10145 10143 10140 10138 10135 10133 10130 10128 10126 10123 10120 10117 10115 10112 10110 10108 10106 10104 10102 10099 10098 10098 10097 10095 10094 10094 10093 10092 10091 10090 10087 10085 10084 10082 10080 10077 10074 10073 10071 10070 10067 10065 10064 10063 10063 10062 10061 10061 10061 10061 10060 10059 10058 10057 10055 10053 10051 10049 10047 10044 10041 10038 10034 10030 10026 10020 10014 10008 10001 9994 9987 9981 9974
10161 10160 10159 10157 10155 10152 10150 10149 10147 10145 10143 10140 10138 10136 10133 10130 10127 10124 10121 10119 10117 10114 10111 10108 10106 10103 10101 10099 10097 10095 10093 10090 10088 10088 10088 10087 10086 10086 10085 10084 10084 10082 10079 10077 10076 10074 10071 10069 10067 10066 10064 10062 10059 10058 10057 10056 10055 10055 10054 10054 10054 10054 10053 10052 10051 10050 10048 10046 10044 10042 10040 10037 10034 10030 10026 10022 10017 10012 10006 9999 9992 9985 9978 9971 9964
10154 10153 10152 10151 10149 10147 10145 10144 10142 10140 10137 10133 10131 10128 10126 10124 10121 10117 10113 10111 10108 10106 10103 10100 10097 10095 10093 10091 10089 10087 10085 10082 10080 10080 10079 10079 10078 10078 10077 10077 10076 10074 10071 10070 10069 10067 10064 10062 10061 10059 10057 10055 10053 10052 10051 10050 10049 10049 10049 10048 10048 10047 10046 10045 10044 10043 10042 10040 10038 10036 10033 10030 10026 10022 10018 10013 10008 10003 9997 9990 9984 9976 9969 9962 9955
10148 10147 10146 10144 10143 10142 10140 10138 10136 10134 10131 10128 10125 10122 10119 10116 10113 10110 10106 10102 10100 10097 10094 10090 10087 10085 10084 10082 10080 10078 10076 10074 10073 10072 10072 10071 10071 10071 10071 10070 10068 10066 10064 10063 10062 10060 10058 10056 10054 10053 10051 10049 10047 10046 10045 10045 10044 10044 10043 10042 10042 10042 10041 10040 10039 10037 10036 10034 10032 10029 10026 10022 10019 10015 10010 10005 9999 9994 9988 9981 9975 9967 9960 9954 9947
10143 10141 10140 10139 10138 10136 10134 10132 10129 10127 10125 10122 10118 10115 10111 10108 10104 10101 10098 10094 10091 10088 10084 10081 10078 10076 10074 10072 10070 10069 10067 10067 10066 10065 10064 10064 10064 10064 10063 10062 10060 10059 10058 10058 10056 10054 10052 10051 10049 10047 10045 10044 10043 10042 10041 10040 10039 10039 10038 10038 10038 10037 10036 10035 10034 10032 10030 10028 10025 10022 10019 10015 10011 10006 10001 9996 9990 9985 9979 9972 9965 9959 9952 9945 9938
10139 10137 10135 10134 10133 10131 10128 10126 10123 10121 10118 10115 10111 10108 10104 10100 10096 10093 10089 10086 10082 10078 10075 10072 10070 10067 10065 10063 10061 10060 10059 10059 10058 10058 10057 10057 10057 10056 10056 10055 10054 10054 10053 10052 10050 10049 10047 10045 10044 10042 10040 10039 10038 10037 10037 10036 10036 10035 10035 10034 10034 10033 10031 10030 10029 10027 10025 10022 10019 10016 10012 10007 10003 9998 9993 9987 9981 9975 9969 9963 9956 9950 9943 9936 9929
10134 10132 10130 10129 10128 10126 10123 10121 10119 10116 10113 10110 10105 10101 10097 10093 10089 10085 10082 10078 10074 10070 10067 10065 10062 10059 10057 10055 10053 10052 10052 10052 10051 10051 10051 10051 10051 10050 10050 10050 10050 10049 10048 10047 10045 10044 10042 10041 10039 10038 10036 10035 10035 10034 10034 10033 10033 10032 10031 10031 10030 10029 10027 10026 10024 10022 10019 10016 10013 10009 10004 10000 9995 9990 9985 9979 9973 9967 9960 9954 9948 9941 9935 9928 9920
10130 10129 10127 10126 10123 10121 10119 10117 10115 10112 10109 10105 10100 10096 10091 10087 10083 10079 10076 10072 10069 10065 10061 10059 10056 10053 10051 10049 10047 10046 10046 10046 10045 10045 10045 10046 10046 10046 10046 10046 10045 10044 10043 10042 10041 10039 10038 10036 10035 10034 10033 10033 10032 10032 10031 10030 10030 10029 10028 10028 10026 10025 10023 10021 10019 10016 10013 10010 10006 10001 9997 9992 9987 9983 9977 9971 9965 9959 9952 9946 9940 9934 9927 9920 9912
10126 10124 10123 10122 10120 10117 10115 10113 10110 10107 10104 10100 10095 10091 10087 10082 10078 10074 10071 10068 10064 10060 10057 10054 10051 10048 10046 10044 10043 10042 10042 10041 10041 10041 10042 10042 10042 10042 10042 10041 10041 10040 10039 10038 10037 10035 10034 10033 10032 10032 10031 10030 10030 10029 10029 10028 10027 10026 10026 10024 10023 10021 10019 10017 10014 10010 10007 10003 9999 9994 9990 9985 9980 9975 9969 9963 9957 9951 9945 9939 9933 9927 9920 9913 9904
10121 10120 10119 10118 10116 10114 10112 10109 10107 10104 10100 10096 10092 10087 10083 10079 10075 10071 10067 10064 10060 10057 10054 10051 10048 10046 10043 10042 10041 10040 10039 10039 10039 10039 10039 10039 10039 10039 10038 10038 10037 10036 10035 10034 10034 10033 10032 10031 10030 10030 10029 10029 10028 10027 10027 10026 10025 10024 10023 10021 10019 10017 10014 10011 10008 10004 10000 9996 9992 9987 9982 9978 9973 9967 9962 9956 9950 9945 9939 9932 9926 9920 9913 9905 9897
10117 10116 10115 10114 10112 10110 10109 10107 10104 10101 10098 10094 10089 10084 10080 10076 10072 10068 10065 10062 10058 10055 10052 10049 10047 10044 10042 10040 10039 10038 10037 10037 10037 10037 10036 10036 10036 10035 10035 10034 10034 10033 10033 10032 10032 10031 10030 10030 10029 10028 10028 10027 10027 10026 10025 10024 10023 10021 10019 10017 10015 10012 10009 10005 10002 9998 9993 9989 9985 9980 9975 9970 9965 9960 9955 9949 9944 9938 9932 9926 9919 9912 9905 9897 9888
10114 10113 10111 10110 10108 10107 10105 10104 10101 10098 10095 10092 10088 10083 10079 10074 10070 10067 10064 10061 10057 10054 10051 10048 10046 10043 10041 10039 10038 10037 10036 10036 10035 10035 10035 10034 10034 10033 10033 10033 10032 10032 10032 10031 10030 10030 10029 10029 10028 10027 10027 10026 10025 10024 10023 10021 10020 10018 10015 10013 10010 10007 10003 10000 9995 9991 9987 9982 9978 9973 9968 9964 9959 9954 9949 9944 9938 9932 9926 9920 9913 9905 9897 9889 9879
10110 10109 10108 10107 10105 10104 10103 10101 10098 10096 10093 10090 10087 10083 10078 10074 10070 10067 10064 10061 10057 10054 10051 10048 10045 10043 10041 10039 10038 10037 10036 10035 10035 10034 10034 10033 10033 10033 10032 10032 10032 10031 10031 10030 10030 10029 10028 10028 10027 10027 10026 10025 10023 10022 10020 10018 10017 10014 10012 10009 10005 10002 9998 9994 9989 9985 9980 9976 9971 9966 9962 9957 9953 9948 9943 9938 9932 9927 9920 9913 9906 9898 9890 9880 9870
10106 10105 10105 10104 10103 10101 10100 10098 10096 10094 10092 10089 10086 10083 10079 10074 10070 10067 10063 10060 10057 10054 10051 10048 10046 10044 10042 10040 10038 10037 10036 10035 10034 10034 10033 10033 10033 10033 10032 10032 10032 10031 10030 10030 10029 10028 10028 10027 10026 10025 10024 10023 10021 10020 10018 10016 10013 10011 10008 10004 10001 9997 9992 9988 9983 9979 9974 9969 9965 9960 9956 9952 9947 9943 9938 9932 9926 9920 9914 9907 9899 9891 9882 9872 9862
10102 10101 10101 10100 10099 10098 10097 10096 10094 10092 10090 10088 10085 10082 10079 10075 10071 10067 10064 10061 10058 10055 10053 10050 10047 10045 10043 10041 10039 10038 10037 10036 10035 10035 10034 10034 10033 10033 10032 10032 10031 10030 10030 10029 10029 10028 10027 10026 10025 10024 10022 10021 10019 10017 10015 10013 10010 10007 10004 10000 9996 9991 9987 9982 9977 9973 9968 9963 9959 9955 9951 9947 9942 9937 9932 9927 9921 9914 9908 9900 9892 9884 9874 9865 9854
10099 10098 10097 10097 10096 10095 10094 10093 10091 10090 10088 10086 10083 10081 10078 10075 10071 10068 10065 10062 10059 10057 10054 10052 10049 10047 10045 10043 10042 10040 10039 10038 10037 10036 10035 10035 10034 10033 10032 10032 10031 10030 10030 10029 10028 10027 10026 10025 10024 10022 10020 10018 10016 10014 10012 10009 10006 10003 9999 9995 9991 9986 9982 9977 9972 9967 9963 9958 9954 9950 9946 9942 9937 9932 9927 9921 9915 9909 9901 9894 9885 9877 9867 9857 9847
10096 10095 10094 10093 10092 10091 10090 10089 10088 10087 10085 10084 10082 10079 10077 10074 10071 10068 10065 10062 10060 10058 10056 10054 10051 10049 10047 10045 10044 10043 10042 10040 10039 10038 10037 10035 10034 10033 10032 10032 10031 10030 10029 10028 10027 10026 10025 10023 10022 10020 10018 10016 10014 10011 10009 10006 10003 9999 9995 9991 9986 9981 9977 9972 9967 9962 9958 9954 9949 9945 9941 9937 9932 9927 9922 9916 9910 9903 9895 9887 9879 9870 9860 9850 9839
10094 10092 10090 10090 10089 10088 10087 10086 10085 10084 10083 10081 10080 10078 10075 10073 10070 10068 10065 10063 10060 10058 10056 10055 10052 10051 10049 10047 10046 10045 10043 10042 10041 10039 10037 10036 10034 10033 10032 10031 10031 10029 10028 10027 10026 10025 10023 10021 10019 10018 10015 10013 10011 10008 10006 10002 9999 9995 9991 9987 9982 9977 9972 9967 9963 9958 9953 9949 9945 9940 9936 9932 9927 9922 9917 9911 9904 9897 9889 9881 9872 9863 9853 9842 9832
10091 10089 10087 10086 10085 10085 10084 10083 10082 10081 10080 10079 10077 10076 10074 10072 10069 10067 10065 10062 10060 10058 10056 10055 10053 10051 10050 10048 10046 10045 10044 10042 10041 10039 10037 10036 10035 10033 10032 10031 10030 10029 10027 10026 10025 10023 10021 10020 10018 10015 10013 10011 10008 10005 10002 9999 9996 9992 9987 9983 9978 9973 9969 9964 9959 9954 9949 9944 9940 9936 9931 9927 9922 9917 9912 9905 9898 9891 9883 9874 9865 9856 9846 9835 9825
10088 10086 10084 10082 10081 10081 10080 10079 10078 10078 10077 10076 10075 10073 10072 10070 10068 10066 10064 10062 10060 10058 10056 10054 10053 10051 10050 10048 10046 10045 10043 10042 10040 10039 10037 10036 10035 10033 10032 10031 10029 10028 10026 10025 10023 10022 10020 10018 10016 10013 10011 10008 10005 10002 9999 9996 9992 9988 9984 9980 9975 9970 9965 9960 9955 9950 9945 9940 9936 9932 9927 9923 9918 9913 9906 9900 9893 9885 9877 9868 9859 9849 9839 9829 9818
10085 10082 10080 10078 10077 10077 10076 10075 10074 10074 10073 10072 10072 10071 10069 10068 10066 10064 10062 10060 10058 10057 10055 10053 10052 10050 10049 10047 10046 10044 10042 10041 10040 10039 10038 10036 10035 10033 10032 10030 10028 10027 10025 10024 10022 10020 10018 10016 10014 10011 10009 10006 10003 10000 9996 9993 9989 9985 9981 9976 9972 9967 9962 9956 9951 9946 9941 9936 9932 9928 9923 9919 9913 9908 9901 9895 9888 9880 9871 9862 9853 9844 9833 9823 9813
10082 10079 10076 10074 10073 10072 10071 10071 10070 10069 10069 10068 10067 10067 10066 10065 10063 10062 10060 10058 10057 10055 10053 10052 10050 10049 10048 10046 10045 10043 10042 10040 10039 10038 10037 10036 10034 10032 10031 10029 10027 10025 10024 10022 10020 10019 10016 10014 10012 10009 10006 10003 10000 9997 9993 9990 9986 9982 9978 9973 9968 9963 9958 9953 9947 9942 9937 9933 9928 9924 9919 9914 9909 9903 9897 9890 9882 9874 9866 9857 9848 9838 9828 9818 9809
10079 10075 10073 10070 10068 10067 10066 10065 10065 10065 10064 10063 10063 10062 10062 10061 10060 10058 10057 10056 10055 10053 10052 10051 10049 10048 10046 10045 10043 10042 10041 10039 10038 10037 10036 10034 10033 10031 10029 10028 10026 10024 10022 10020 10019 10017 10014 10012 10009 10007 10004 10001 9998 9994 9991 9987 9983 9979 9975 9970 9965 9960 9955 9950 9944 9939 9934 9929 9925 9920 9916 9910 9905 9899 9892 9885 9877 9869 9861 9852 9843 9833 9823 9814 9805
10075 10072 10069 10066 10063 10061 10060 10059 10059 10059 10059 10058 10058 10057 10057 10056 10055 10054 10053 10053 10052 10051 10050 10048 10047 10046 10045 10043 10042 10040 10039 10038 10037 10035 10034 10033 10031 10029 10028 10026 10024 10022 10021 10019 10017 10014 10012 10010 10007 10005 10002 9999 9995 9992 9988 9984 9980 9976 9972 9967 9962 9957 9952 9947 9941 9936 9931 9926 9922 9917 9912 9907 9901 9895 9888 9881 9873 9864 9856 9848 9838 9829 9819 9810 9801